Location: ČR
(50.0000°N, 15.0000°E)
Time: 17:07:29
(UTC+00:00)

Envisat - Pass Details

Date: 30 September 2021
Orbit: 764 x 766 km, 98.2° (Epoch: 22 October)

Event Time Altitude Azimuth Distance (km) Brightness Sun altitude
Rises 04:09:04 0° 15° (NNE) 3,244 6.5 -8.8°
Reaches altitude 10° 04:11:24 10° 18° (NNE) 2,313 5.8 -8.4°
Maximum altitude 04:16:29 70° 102° (ESE) 813 3.4 -7.6°
Drops below altitude 10° 04:21:32 10° 187° (S) 2,295 5.4 -6.8°
Sets 04:23:50 0° 189° (S) 3,216 6.1 -6.4°
